Location: Newark
(47.0000°N, 7.6833°E)
Time: 04:51:59
(UTC+00:00)

Envisat - Pass Details

Date: 25 August 2019
Orbit: 764 x 766 km, 98.1° (Epoch: 17 September)

Event Time Altitude Azimuth Distance (km) Brightness Sun altitude
Rises 18:48:33 0° 204° (SSW) 3,221 6.3 -4.9°
Reaches altitude 10° 18:51:24 10° 221° (SW) 2,300 5.7 -5.4°
Maximum altitude 18:55:11 21° 269° (W) 1,681 5.8 -6.0°
Drops below altitude 10° 18:58:58 10° 317° (NW) 2,312 6.7 -6.6°
Sets 19:01:52 0° 334° (NNW) 3,244 7.1 -7.0°
